Simultaneous Nadir Overpasses (SNOs) Predictions

Prediction of SNOs between NOAA-19 and METOP-C Satellite Orbit:

Table of predicted SNOs for the next 14.0 days since TLE Epoch: 1/23/2022
Index Date (NOAA-19) Time (NOAA-19) Lat,Lon (NOAA-19) SZA (NOAA-19 ) Date (METOP-C) Time (METOP-C) Lat,Lon (METOP-C) SZA (METOP-C ) Distance(km) Time Diff (sec)
1 01/26/2022 01:30:17 80.75,-171.00 100.53 01/26/2022 01:31:12 80.73,-170.94 100.54 1.97 55
2 01/26/2022 02:21:13 -80.74, -3.57 79.48 01/26/2022 02:21:53 -80.73, -3.59 79.48 1.04 40
3 01/26/2022 03:12:16 80.74, 163.91 100.53 01/26/2022 03:12:33 80.75, 163.93 100.54 1.05 17
4 01/26/2022 04:03:12 -80.73, -28.66 79.48 01/26/2022 04:03:14 -80.75, -28.72 79.47 1.94 2
5 01/26/2022 04:54:16 80.74, 138.46 100.51 01/26/2022 04:53:55 80.74, 138.44 100.51 0.29 21
6 01/26/2022 05:45:12 -80.73, -54.12 79.49 01/26/2022 05:44:36 -80.74, -54.20 79.50 1.66 36
7 01/26/2022 06:36:16 80.73, 113.00 100.50 01/26/2022 06:35:17 80.73, 112.96 100.47 0.98 59



Historial Predications of SNOs between NOAA-19 and METOP-C
